Theta_e
331 333 334 336 329 334 339 337 335 332 336 336 326 330 331 327 332 334 331 329 327 324
336 335 336 339 337 335 335 330 335 339 336 333 330 326 329 335 334 331 330 328 326 326
335 336 336 332 328 329 325 320 320 318 327 322 332 335 333 329 330 329 327 325 323 321
331 330 330 323 321 326 321 319 322 325 330 332 330 331 331 329 329 326 323 323 321 320
322 323 323 323 325 327 329 330 331 332 331 331 330 329 328 328 329 325 322 322 322 321
320 321 320 322 323 324 324 324 322 324 324 325 326 326 328 329 327 325 324 322 320 321
312 316 315 316 316 315 316 315 315 316 319 319 319 321 321 319 317 317 318 320 321 321
309 309 309 309 310 312 312 313 315 315 315 315 315 315 310 311 309 308 309 311 312 312
307 307 307 308 307 308 309 310 310 310 311 310 313 307 307 307 306 305 306 305 307 308
307 306 305 306 305 306 306 306 306 307 307 307 307 304 299 301 302 303 302 302 303 305
305 304 303 303 302 302 303 303 303 304 304 304 306 298 297 298 298 298 299 300 301 301
304 302 302 301 301 301 301 301 301 302 301 300 300 299 297 297 297 297 297 299 300 301
302 301 300 300 300 300 299 299 301 300 300 300 297 297 296 296 297 296 296 298 298 300
300 299 297 296 296 296 295 295 295 296 296 296 297 298 296 295 296 295 295 295 295 297
Wind_Speed
7 5 4 7 5 7 8 9 10 10 11 14 9 9 12 12 17 15 7 8 5 3
6 8 9 9 7 5 2 6 6 5 3 7 7 15 15 10 11 6 6 5 4 4
4 4 5 6 7 7 4 3 7 14 0 19 15 10 8 4 4 3 1 3 6 5
9 7 6 4 3 4 3 1 3 6 13 11 7 5 6 5 2 4 5 4 6 7
8 7 7 7 9 7 7 7 12 9 8 7 6 5 6 7 6 7 8 8 9 11
8 7 6 7 6 7 6 4 2 5 5 6 6 5 5 6 7 7 9 11 11 12
8 9 7 7 6 7 6 7 7 7 6 6 5 4 3 3 4 4 5 6 6 8
6 6 6 7 7 7 7 6 6 7 7 7 7 6 6 7 5 5 6 6 6 6
6 5 5 6 6 6 6 5 5 5 4 4 4 9 11 9 6 5 5 6 6 7
7 7 7 6 7 7 7 6 7 7 6 7 6 9 9 10 5 5 6 6 6 7
7 7 7 7 7 7 5 5 5 5 6 6 6 8 7 9 5 5 6 6 7 8
6 7 7 7 7 6 6 6 5 5 6 6 6 5 6 9 5 5 7 9 11 11
6 6 6 7 8 5 5 6 6 7 6 8 7 8 8 4 6 9 8 9 9 11
10 8 7 7 5 6 6 7 6 7 6 6 6 10 12 13 6 6 7 7 8 8
Wind_Direction
201 201 216 214 214 229 205 214 219 214 200 193 165 198 202 214 203 227 192 194 206 226
225 217 220 227 208 194 110 52 357 263 246 342 206 186 205 231 226 196 165 188 215 223
32 19 52 54 60 82 120 139 103 76 96 216 237 204 177 209 163 147 104 182 208 223
23 29 46 52 41 44 127 341 109 167 212 235 226 174 147 166 150 163 216 241 226 229
51 35 50 61 57 43 56 26 35 348 219 209 170 156 189 194 192 212 211 218 220 231
43 46 36 49 34 45 40 42 75 84 22 10 9 332 296 253 248 238 242 243 230 230
20 17 24 35 41 40 35 26 17 17 13 12 1 339 319 24 32 3 333 319 309 293
23 19 13 12 9 10 14 13 17 8 0 356 352 341 2 354 347 332 313 308 292 280
351 336 339 357 21 32 24 18 20 357 342 331 315 320 323 328 321 316 297 288 289 280
357 18 20 14 15 11 3 1 353 343 344 333 326 324 28 27 7 347 326 305 293 295
14 4 0 2 0 356 354 347 333 323 315 313 330 84 40 16 358 324 305 302 297 291
2 357 359 355 337 321 324 332 330 343 354 342 324 350 334 332 316 295 293 299 294 283
3 359 340 345 2 353 349 335 342 339 332 328 323 303 313 332 304 301 301 299 290 291
28 16 26 2 359 350 346 339 332 314 301 297 305 303 298 300 301 289 292 290 292 287